Regional Weather Roundup
Issued by NWS

Home | Current Version | Previous Version | Text Only | Print | Product List | Glossary On
Versions: 1 2 3 4 5 6 7 8 9 10 11 12 13 14 15 16 17 18 19 20 21 22 23 24 25 26 27 28 29 30 31 32 33 34 35 36 37 38 39 40 41 42 43 44 45 46 47 48 49 50
000
ASUS46 KPQR 240310
RWROR

OREGON REGIONAL WEATHER ROUNDUP
NATIONAL WEATHER SERVICE PORTLAND OR
800 PM PDT THU MAR 23 2017

NOTE: "FAIR" INDICATES FEW OR NO CLOUDS BELOW 12,000 FEET WITH
NO SIGNIFICANT WEATHER AND/OR OBSTRUCTIONS TO VISIBILITY.

ORZ001>013-240400-
NORTHWEST OREGON


CITY           SKY/WX    TMP DP  RH WIND       PRES   REMARKS
ASTORIA        LGT RAIN  46  43  89 E8        29.83F
NEWPORT        RAIN      46  45  93 SE8       29.88F
PORTLAND       LGT RAIN  50  45  83 SW10      29.94R
VANCOUVER WA   LGT RAIN  50  46  86 VRB6      29.93R
SCAPPOOSE      LGT RAIN  48  44  86 S8        29.92R
HILLSBORO      LGT RAIN  48  45  89 S8        29.92S
AURORA         LGT RAIN  49  44  83 S7        29.94S
MCMINNVILLE    LGT RAIN  49 N/A N/A SE8       29.92F
SALEM          LGT RAIN  48  44  86 SE12      29.90F
CORVALLIS        N/A     48  45  87 SE3       29.91F
EUGENE         LGT RAIN  49  45  86 SE13      29.91F
$$

ORZ021-028-240400-
SOUTHWEST OREGON


CITY           SKY/WX    TMP DP  RH WIND       PRES   REMARKS
NORTH BEND     CLOUDY    50  45  81 SE10G16   29.87F
BROOKINGS      LGT RAIN  46  43  89 SE10G18   29.98F
ROSEBURG       LGT RAIN  50  44  80 S6        29.94S
SEXTON SUMMIT  FOG       36  35  96 S13       29.93F VSB 1/4 WCI  27
MEDFORD        LGT RAIN  51  43  74 N7        29.97F
$$

ORZ014>016-041-240400-
COLUMBIA GORGE


CITY           SKY/WX    TMP DP  RH WIND       PRES   REMARKS
TROUTDALE      LGT RAIN  52  43  71 SW7       29.94R
THE DALLES     CLOUDY    53  38  56 NW5       29.94R
$$

ORZ029>031-041-044-049-050-061>064-502-503-505>511-240400-
EASTERN OREGON


CITY           SKY/WX    TMP DP  RH WIND       PRES   REMARKS
REDMOND        CLOUDY    53  19  26 S7        29.90S
BEND           CLOUDY    50  23  34 CALM      29.91R
PRINEVILLE     CLOUDY    52  23  32 S8        29.90S
KLAMATH FALLS  LGT RAIN  41  34  76 S15       30.03R
LAKEVIEW       CLOUDY    43  27  52 SW10      30.06R
HERMISTON      CLOUDY    51  38  60 E8        29.93F
PENDLETON      PTCLDY    46  36  68 NE13      29.93F
JOHN DAY       CLEAR     48  25  39 CALM      29.96F
MEACHAM        CLEAR     36  27  69 CALM      29.96S
LA GRANDE      CLEAR     43  30  61 S6        29.96F
BAKER CITY     CLEAR     42  24  49 SE5       29.98S
BURNS          PTCLDY    43  29  57 E8        29.98S
ROME             N/A     42  28  57 SE12      29.99F
ONTARIO        CLEAR     50  31  48 E7        30.03R
$$



USA.gov is the U.S. government's official web portal to all federal, state and local government web resources and services.